Manistique, MI

7:42 PM EST on December 12, 2017 (GMT -0500)
Schoolcraft County

Weather History for KISQ - February, 2014

Change the Weather History Date:

Monday, February 24, 2014

  Actual Average Record
Temperature  
Mean Temperature 8 °F -  
Max Temperature 13 °F 28 °F 45 °F (1958)
Min Temperature 3 °F 11 °F -22 °F (1963)
Degree Days  
Heating Degree Days 57    
Moisture  
Dew Point -1 °F    
Average Humidity 67    
Maximum Humidity 78    
Minimum Humidity 52    
Precipitation  
Precipitation 0.00 in - - ()
Sea Level Pressure  
Sea Level Pressure 30.05 in    
Wind  
Wind Speed 9 mph (WNW)    
Max Wind Speed 17 mph    
Max Gust Speed 24 mph    
Visibility 10 miles    
Events Snow    
Averages and records for this station are not official NWS values.
T = Trace of Precipitation, MM = Missing Value Source: NWS Daily Summary

Daily Weather History Graph

Daily Weather History Graph

Search for Another Location

Airport or City:

Trip Planner

Search our weather history database for the weather conditions in past years. The results will help you decide how hot, cold, wet, or windy it might be!

Date:

Astronomy

Feb. 24, 2014 Rise Set
Actual Time 7:32 AM EST 6:24 PM EST
Civil Twilight 7:02 AM EST 6:54 PM EST
Nautical Twilight 6:27 AM EST 7:29 PM EST
Astronomical Twilight 5:53 AM EST 8:03 PM EST
Moon 3:40 AM EST (2/24) 1:14 PM EST (2/24)
Length of Visible Light 11h 52m
Length of Day
10h 51m
Waning Crescent, 28% of the Moon is Illuminated
Feb 24
Waning Crescent
Mar 1
New
Mar 8
First Quarter
Mar 16
Full
Mar 23
Last Quarter

Hourly Weather History & Observations

Time (EST) Temp. Windchill Dew Point Humidity Pressure Visibility Wind Dir Wind Speed Gust Speed Precip Events Conditions
12:15 AM 9.1 °F -3.0 °F 0.9 °F 69% 29.97 in 10.0 mi West 8.1 mph - N/A   Scattered Clouds
12:35 AM 9.3 °F -3.8 °F 0.7 °F 68% 29.97 in 10.0 mi West 9.2 mph - N/A   Mostly Cloudy
12:55 AM 9.3 °F -2.8 °F 0.5 °F 67% 29.97 in 10.0 mi West 8.1 mph - N/A   Overcast
1:15 AM 8.6 °F -3.7 °F 0.5 °F 70% 29.97 in 10.0 mi West 8.1 mph - N/A   Overcast
1:35 AM 8.6 °F -2.6 °F 0.9 °F 71% 29.97 in 10.0 mi WNW 6.9 mph - N/A   Overcast
1:55 AM 8.6 °F -3.7 °F 2.1 °F 75% 29.98 in 5.0 mi West 8.1 mph - N/A Snow Light Snow
2:15 AM 8.6 °F -2.6 °F 1.4 °F 73% 29.98 in 10.0 mi West 6.9 mph - N/A   Mostly Cloudy
2:35 AM 8.6 °F -4.7 °F 1.6 °F 73% 29.98 in 10.0 mi West 9.2 mph - N/A   Overcast
2:54 AM 8.4 °F -4.9 °F 1.8 °F 74% 29.98 in 10.0 mi West 9.2 mph - N/A   Overcast
3:15 AM 8.1 °F -0.5 °F 1.4 °F 74% 29.98 in 7.0 mi West 4.6 mph - N/A   Overcast
3:35 AM 7.7 °F -0.9 °F 1.2 °F 75% 29.98 in 10.0 mi West 4.6 mph - N/A   Overcast
3:55 AM 7.5 °F -3.9 °F 1.0 °F 75% 29.98 in 10.0 mi West 6.9 mph - N/A   Overcast
4:15 AM 7.2 °F -4.3 °F 0.5 °F 74% 29.98 in 7.0 mi West 6.9 mph - N/A   Overcast
4:35 AM 6.8 °F -4.8 °F 0.1 °F 74% 29.98 in 10.0 mi West 6.9 mph - N/A   Mostly Cloudy
4:55 AM 6.6 °F -7.1 °F -0.4 °F 73% 29.98 in 7.0 mi West 9.2 mph - N/A   Mostly Cloudy
5:15 AM 6.4 °F -8.2 °F -0.8 °F 72% 29.99 in 10.0 mi West 10.4 mph - N/A   Overcast
5:35 AM 6.3 °F -5.4 °F -1.3 °F 71% 29.99 in 10.0 mi West 6.9 mph - N/A   Overcast
5:55 AM 6.3 °F -6.5 °F -1.1 °F 72% 29.99 in 10.0 mi West 8.1 mph - N/A   Overcast
6:15 AM 6.1 °F -6.8 °F -1.3 °F 72% 29.99 in 10.0 mi West 8.1 mph - N/A   Overcast
6:34 AM 5.9 °F -8.0 °F -0.9 °F 73% 30.00 in 7.0 mi West 9.2 mph - N/A   Overcast
6:55 AM 5.9 °F -8.0 °F -1.3 °F 72% 30.00 in 10.0 mi West 9.2 mph - N/A   Overcast
7:15 AM 5.7 °F -8.2 °F -1.3 °F 73% 30.01 in 10.0 mi West 9.2 mph - N/A   Mostly Cloudy
7:35 AM 5.5 °F -8.4 °F -1.7 °F 72% 30.01 in 10.0 mi West 9.2 mph - N/A   Clear
7:55 AM 5.0 °F -10.8 °F -2.2 °F 72% 30.01 in 10.0 mi West 11.5 mph 16.1 mph N/A   Clear
8:15 AM 5.4 °F -8.6 °F -2.6 °F 70% 30.01 in 10.0 mi West 9.2 mph - N/A   Clear
8:35 AM 5.9 °F -8.9 °F -2.4 °F 69% 30.02 in 10.0 mi West 10.4 mph - N/A   Scattered Clouds
8:55 AM 6.6 °F -8.0 °F -2.4 °F 67% 30.02 in 10.0 mi West 10.4 mph - N/A   Scattered Clouds
9:15 AM 7.7 °F -8.2 °F -2.2 °F 64% 30.03 in 10.0 mi West 12.7 mph 18.4 mph N/A   Clear
9:35 AM 8.6 °F -8.3 °F -2.2 °F 62% 30.03 in 10.0 mi West 15.0 mph 20.7 mph N/A   Clear
9:55 AM 9.5 °F -6.6 °F -2.2 °F 59% 30.03 in 10.0 mi WNW 13.8 mph 21.9 mph N/A   Clear
10:14 AM 9.7 °F -7.0 °F -2.6 °F 58% 30.03 in 10.0 mi WNW 15.0 mph 24.2 mph N/A   Clear
10:35 AM 10.4 °F -6.6 °F -2.9 °F 55% 30.03 in 10.0 mi WNW 16.1 mph 20.7 mph N/A   Mostly Cloudy
10:55 AM 11.1 °F -2.4 °F -2.2 °F 55% 30.03 in 10.0 mi WNW 10.4 mph 17.3 mph N/A   Mostly Cloudy
11:15 AM 11.1 °F -6.2 °F -2.0 °F 56% 30.04 in 10.0 mi WNW 17.3 mph 24.2 mph N/A   Overcast
11:35 AM 10.8 °F -5.6 °F -1.5 °F 58% 30.04 in 7.0 mi WNW 15.0 mph 18.4 mph N/A   Overcast
11:55 AM 11.5 °F -4.1 °F -0.2 °F 59% 30.05 in 10.0 mi WNW 13.8 mph - N/A   Overcast
12:15 PM 11.5 °F -4.1 °F -2.4 °F 54% 30.05 in 10.0 mi NW 13.8 mph 19.6 mph N/A   Overcast
12:35 PM 12.0 °F -4.5 °F -1.5 °F 55% 30.06 in 10.0 mi WNW 16.1 mph 23.0 mph N/A   Overcast
12:55 PM 12.6 °F -3.3 °F -2.0 °F 52% 30.06 in 10.0 mi WNW 15.0 mph 23.0 mph N/A   Overcast
1:15 PM 12.6 °F -3.3 °F -1.3 °F 54% 30.06 in 10.0 mi WNW 15.0 mph 21.9 mph N/A   Overcast
1:35 PM 13.6 °F -1.9 °F -1.3 °F 52% 30.06 in 10.0 mi WNW 15.0 mph 18.4 mph N/A   Overcast
1:54 PM 12.6 °F -2.7 °F -1.7 °F 53% 30.07 in 10.0 mi WNW 13.8 mph 18.4 mph N/A   Overcast
2:15 PM 12.0 °F -2.0 °F -2.0 °F 53% 30.07 in 10.0 mi NW 11.5 mph 18.4 mph N/A   Overcast
2:35 PM 12.4 °F -2.3 °F -0.2 °F 57% 30.07 in 5.0 mi NNW 12.7 mph - N/A   Haze
2:55 PM 12.6 °F -0.6 °F 0.7 °F 59% 30.08 in 4.0 mi NW 10.4 mph - N/A   Haze
3:15 PM 12.7 °F -0.4 °F 0.7 °F 59% 30.08 in 10.0 mi NW 10.4 mph 17.3 mph N/A   Overcast
3:35 PM 12.7 °F 0.4 °F 0.1 °F 57% 30.08 in 10.0 mi NW 9.2 mph 16.1 mph N/A   Overcast
3:55 PM 12.7 °F -0.4 °F 0.5 °F 58% 30.08 in 10.0 mi WNW 10.4 mph 16.1 mph N/A   Overcast
4:15 PM 12.7 °F -1.1 °F 0.3 °F 58% 30.09 in 10.0 mi NW 11.5 mph - N/A   Mostly Cloudy
4:35 PM 12.7 °F -0.4 °F 0.5 °F 58% 30.09 in 10.0 mi NW 10.4 mph - N/A   Scattered Clouds
4:55 PM 12.2 °F -2.5 °F 1.4 °F 62% 30.09 in 10.0 mi NNW 12.7 mph 16.1 mph N/A   Mostly Cloudy
5:15 PM 11.3 °F -2.9 °F 1.0 °F 63% 30.10 in 10.0 mi North 11.5 mph - N/A   Scattered Clouds
5:35 PM 11.1 °F -1.6 °F 0.5 °F 62% 30.10 in 10.0 mi NNW 9.2 mph - N/A   Clear
5:55 PM 10.2 °F -1.7 °F -0.0 °F 63% 30.11 in 10.0 mi North 8.1 mph - N/A   Clear
6:15 PM 9.1 °F -1.9 °F -1.1 °F 63% 30.11 in 10.0 mi NNW 6.9 mph - N/A   Clear
6:35 PM 8.6 °F -1.3 °F -1.7 °F 63% 30.11 in 10.0 mi NNW 5.8 mph - N/A   Clear
6:54 PM 7.7 °F 1.0 °F -2.2 °F 64% 30.11 in 10.0 mi NNW 3.5 mph - N/A   Clear
7:15 PM 6.8 °F -2.0 °F -2.4 °F 66% 30.11 in 10.0 mi NNW 4.6 mph - N/A   Clear
7:35 PM 6.3 °F -2.6 °F -2.0 °F 69% 30.12 in 10.0 mi NW 4.6 mph - N/A   Clear
7:55 PM 4.8 °F -2.3 °F -2.2 °F 73% 30.12 in 10.0 mi WNW 3.5 mph - N/A   Clear
8:15 PM 3.6 °F -3.8 °F -2.4 °F 76% 30.12 in 10.0 mi WNW 3.5 mph - N/A   Clear
8:35 PM 4.5 °F -6.3 °F -1.5 °F 76% 30.12 in 10.0 mi West 5.8 mph - N/A   Mostly Cloudy
8:55 PM 5.0 °F -4.1 °F -1.3 °F 75% 30.13 in 10.0 mi West 4.6 mph - N/A   Scattered Clouds
9:15 PM 4.8 °F -5.8 °F -1.3 °F 76% 30.13 in 10.0 mi West 5.8 mph - N/A   Mostly Cloudy
9:35 PM 4.1 °F -8.0 °F -1.7 °F 77% 30.13 in 10.0 mi West 6.9 mph - N/A   Scattered Clouds
9:55 PM 4.5 °F -7.6 °F -1.1 °F 78% 30.14 in 10.0 mi West 6.9 mph - N/A   Mostly Cloudy
10:15 PM 5.0 °F -5.6 °F -0.8 °F 77% 30.13 in 10.0 mi WNW 5.8 mph - N/A   Scattered Clouds
10:35 PM 3.0 °F -8.0 °F -2.6 °F 78% 30.12 in 10.0 mi WNW 5.8 mph - N/A   Clear
10:55 PM 5.9 °F -4.5 °F 0.1 °F 77% 30.12 in 10.0 mi West 5.8 mph - N/A   Mostly Cloudy
11:14 PM 3.2 °F -7.8 °F -2.2 °F 78% 30.11 in 10.0 mi WNW 5.8 mph - N/A   Overcast
11:35 PM 4.3 °F -6.5 °F -1.5 °F 77% 30.10 in 10.0 mi NW 5.8 mph - N/A   Mostly Cloudy
11:55 PM 4.3 °F -6.5 °F -1.7 °F 76% 30.10 in 10.0 mi WNW 5.8 mph - N/A   Overcast